BEIDOU 13 (C12)

Last updated on Mon Feb 13 2023 00:03:21 GMT+0000 (Coordinated Universal Time)

1 38251U 12018B 23043.24283432 -.00000075 00000+0 00000+0 0 9992 2 38251 56.5242 344.9404 0015251 267.5991 195.4659 1.86234227 73550
UTC large
Height (km)
Speed (km/s)
/
Latitude / Longitude
Inclination (degrees)
Orbital Period (minutes)
Azimuth
Elevation
Range (km)
Doppler Factor

Next 0 passes for location: London (51.5072 / 0.1276)

Sorry there are no passes over London.